When you browse on this site, cookies collect data to enhance your experience and personalize the content and advertising you see.
Visit our Privacy Policy to learn more. By continuing to use the site, you agree to this use of cookies and data.
  • En España
  • Lista de países
  • Para 7 días
  • Temperatura del agua
  • Mapa Satelital
  • El tiempo en el mapa
  • Informadores
  • user-avatar
    Iniciar sesión

    Tiempo cada hora Makove

    Hoy, 21 Marzo, Jueves

    Tiempo Temperatura Precipitaciones Viento Presión Humedad
    00:00 +1°C° 0 mm 2 mps 755 mmHg 80%
    01:00 -1°C° 0 mm 2 mps 755 mmHg 82%
    02:00 -1°C° 0 mm 2 mps 755 mmHg 84%
    03:00 -1°C° 0 mm 2 mps 754 mmHg 83%
    04:00 -1°C° 0 mm 2 mps 754 mmHg 82%
    05:00 -1°C° 0 mm 2 mps 753 mmHg 82%
    06:00 0°C° 0 mm 3 mps 753 mmHg 78%
    07:00 0°C° 0 mm 4 mps 753 mmHg 73%
    08:00 +1°C° 0 mm 5 mps 753 mmHg 69%
    09:00 +1°C° 0.1 mm 5 mps 752 mmHg 70%
    10:00 +1°C° 0.1 mm 6 mps 752 mmHg 71%
    11:00 +2°C° 0.1 mm 6 mps 752 mmHg 72%
    12:00 +2°C° 0 mm 6 mps 752 mmHg 71%
    13:00 +3°C° 0 mm 6 mps 752 mmHg 71%
    14:00 +3°C° 0 mm 6 mps 752 mmHg 71%
    15:00 +3°C° 0 mm 5 mps 752 mmHg 72%
    16:00 +4°C° 0 mm 4 mps 752 mmHg 73%
    17:00 +4°C° 0 mm 4 mps 752 mmHg 73%
    18:00 +3°C° 0 mm 3 mps 752 mmHg 76%
    19:00 +3°C° 0 mm 3 mps 752 mmHg 78%
    20:00 +3°C° 0 mm 2 mps 753 mmHg 81%
    21:00 +3°C° 0 mm 2 mps 753 mmHg 82%
    22:00 +3°C° 0 mm 2 mps 752 mmHg 83%
    23:00 +3°C° 0 mm 2 mps 752 mmHg 84%

    Mañana, 22 Marzo, Viernes

    Tiempo Temperatura Precipitaciones Viento Presión Humedad
    00:00 +2°C° 0 mm 2 mps 752 mmHg 86%
    01:00 +2°C° 0 mm 2 mps 752 mmHg 87%
    02:00 +1°C° 0 mm 2 mps 752 mmHg 89%
    03:00 +2°C° 0 mm 2 mps 752 mmHg 89%
    04:00 +2°C° 0 mm 2 mps 751 mmHg 89%
    05:00 +1°C° 0 mm 3 mps 751 mmHg 88%
    06:00 +1°C° 0.3 mm 3 mps 750 mmHg 89%
    07:00 +1°C° 0.3 mm 4 mps 750 mmHg 90%
    08:00 +1°C° 0.3 mm 5 mps 749 mmHg 90%
    09:00 +2°C° 0.4 mm 5 mps 749 mmHg 91%
    10:00 +2°C° 0.4 mm 5 mps 748 mmHg 91%
    11:00 +3°C° 0.4 mm 6 mps 748 mmHg 91%
    12:00 +4°C° 0.1 mm 6 mps 747 mmHg 86%
    13:00 +5°C° 0.1 mm 7 mps 747 mmHg 82%
    14:00 +6°C° 0.1 mm 7 mps 746 mmHg 77%
    15:00 +6°C° 0.2 mm 8 mps 747 mmHg 68%
    16:00 +5°C° 0.2 mm 8 mps 747 mmHg 60%
    17:00 +5°C° 0.2 mm 8 mps 747 mmHg 52%
    18:00 +3°C° 0 mm 7 mps 748 mmHg 55%
    19:00 +2°C° 0 mm 6 mps 749 mmHg 58%
    20:00 -1°C° 0 mm 6 mps 749 mmHg 61%
    21:00 -1°C° 0 mm 6 mps 749 mmHg 62%
    22:00 -2°C° 0 mm 6 mps 749 mmHg 64%
    23:00 -2°C° 0 mm 6 mps 749 mmHg 65%

    Pasado mañana, 23 Marzo, Sábado

    Tiempo Temperatura Precipitaciones Viento Presión Humedad
    00:00 -2°C° 0 mm 6 mps 749 mmHg 66%
    01:00 -2°C° 0 mm 6 mps 749 mmHg 68%
    02:00 -3°C° 0 mm 6 mps 749 mmHg 70%
    03:00 -3°C° 0 mm 6 mps 749 mmHg 72%
    04:00 -3°C° 0 mm 6 mps 749 mmHg 74%
    05:00 -3°C° 0 mm 6 mps 749 mmHg 76%
    06:00 -3°C° 0 mm 7 mps 749 mmHg 74%
    07:00 -2°C° 0 mm 7 mps 749 mmHg 71%
    08:00 -2°C° 0 mm 8 mps 750 mmHg 69%
    09:00 -1°C° 0 mm 8 mps 750 mmHg 64%
    10:00 0°C° 0 mm 8 mps 750 mmHg 60%
    11:00 0°C° 0 mm 7 mps 750 mmHg 56%
    12:00 +2°C° 0 mm 7 mps 750 mmHg 55%
    13:00 +3°C° 0 mm 6 mps 750 mmHg 54%
    14:00 +4°C° 0 mm 6 mps 751 mmHg 53%
    15:00 +3°C° 0 mm 5 mps 751 mmHg 56%
    16:00 +4°C° 0 mm 4 mps 751 mmHg 59%
    17:00 +3°C° 0 mm 3 mps 751 mmHg 62%
    18:00 +2°C° 0 mm 3 mps 751 mmHg 67%
    19:00 +2°C° 0 mm 2 mps 751 mmHg 72%
    20:00 +1°C° 0 mm 2 mps 751 mmHg 77%
    21:00 +1°C° 0 mm 2 mps 751 mmHg 78%
    22:00 -1°C° 0 mm 2 mps 751 mmHg 78%
    23:00 -1°C° 0 mm 2 mps 751 mmHg 79%

    24 Marzo, Domingo

    Tiempo Temperatura Precipitaciones Viento Presión Humedad
    00:00 +1°C° 0 mm 2 mps 751 mmHg 78%
    01:00 +1°C° 0 mm 2 mps 750 mmHg 77%
    02:00 0°C° 0 mm 3 mps 750 mmHg 76%
    03:00 +1°C° 0.3 mm 3 mps 749 mmHg 77%
    04:00 +1°C° 0.3 mm 3 mps 749 mmHg 77%
    05:00 0°C° 0.3 mm 4 mps 748 mmHg 78%
    06:00 0°C° 0.2 mm 4 mps 748 mmHg 80%
    07:00 +1°C° 0.2 mm 4 mps 748 mmHg 82%
    08:00 +1°C° 0.2 mm 4 mps 747 mmHg 85%
    09:00 +2°C° 0 mm 5 mps 748 mmHg 82%
    10:00 +3°C° 0 mm 5 mps 748 mmHg 80%
    11:00 +5°C° 0 mm 6 mps 748 mmHg 78%
    12:00 +5°C° 0 mm 6 mps 748 mmHg 70%
    13:00 +5°C° 0 mm 6 mps 748 mmHg 62%
    14:00 +5°C° 0 mm 6 mps 748 mmHg 55%
    15:00 +5°C° 0 mm 6 mps 748 mmHg 55%
    16:00 +5°C° 0 mm 5 mps 748 mmHg 56%
    17:00 +5°C° 0 mm 4 mps 749 mmHg 57%
    18:00 +4°C° 0 mm 3 mps 749 mmHg 61%
    19:00 +2°C° 0 mm 3 mps 749 mmHg 65%
    20:00 +1°C° 0 mm 3 mps 750 mmHg 69%
    21:00 +1°C° 0 mm 3 mps 750 mmHg 70%
    22:00 0°C° 0 mm 3 mps 750 mmHg 71%
    23:00 0°C° 0 mm 3 mps 750 mmHg 72%

    25 Marzo, Lunes

    Tiempo Temperatura Precipitaciones Viento Presión Humedad
    00:00 -1°C° 0 mm 3 mps 750 mmHg 74%
    01:00 -1°C° 0 mm 2 mps 750 mmHg 76%
    02:00 -1°C° 0 mm 2 mps 750 mmHg 77%
    03:00 -2°C° 0 mm 2 mps 750 mmHg 77%
    04:00 0°C° 0 mm 1 mps 750 mmHg 76%
    05:00 0°C° 0 mm 1 mps 750 mmHg 76%
    06:00 +1°C° 0 mm 1 mps 750 mmHg 70%
    07:00 +2°C° 0 mm 1 mps 749 mmHg 64%
    08:00 +3°C° 0 mm 1 mps 749 mmHg 59%
    09:00 +3°C° 0 mm 2 mps 749 mmHg 53%
    10:00 +3°C° 0 mm 3 mps 749 mmHg 48%
    11:00 +4°C° 0 mm 3 mps 748 mmHg 42%
    12:00 +5°C° 0 mm 4 mps 747 mmHg 43%
    13:00 +5°C° 0 mm 4 mps 747 mmHg 43%
    14:00 +5°C° 0 mm 4 mps 746 mmHg 44%
    15:00 +5°C° 0 mm 4 mps 745 mmHg 47%
    16:00 +5°C° 0 mm 4 mps 744 mmHg 51%
    17:00 +4°C° 0 mm 4 mps 744 mmHg 55%
    18:00 +4°C° 0 mm 4 mps 743 mmHg 59%
    19:00 +2°C° 0 mm 5 mps 743 mmHg 62%
    20:00 +1°C° 0 mm 5 mps 742 mmHg 66%
    21:00 +1°C° 0.1 mm 5 mps 741 mmHg 68%
    22:00 +1°C° 0.1 mm 5 mps 740 mmHg 71%
    23:00 +1°C° 0.1 mm 6 mps 739 mmHg 73%

    26 Marzo, Martes

    Tiempo Temperatura Precipitaciones Viento Presión Humedad
    00:00 +1°C° 0.3 mm 6 mps 739 mmHg 79%
    01:00 +1°C° 0.3 mm 6 mps 738 mmHg 84%
    02:00 +1°C° 0.3 mm 6 mps 737 mmHg 90%
    03:00 +1°C° 0.3 mm 6 mps 737 mmHg 89%
    04:00 +1°C° 0.3 mm 6 mps 737 mmHg 89%
    05:00 +1°C° 0.3 mm 6 mps 737 mmHg 88%
    06:00 +1°C° 0 mm 6 mps 737 mmHg 83%
    07:00 +1°C° 0 mm 6 mps 737 mmHg 77%
    08:00 -1°C° 0 mm 6 mps 737 mmHg 72%
    09:00 +1°C° 0.1 mm 6 mps 737 mmHg 66%
    10:00 +2°C° 0.1 mm 6 mps 738 mmHg 61%
    11:00 +3°C° 0.1 mm 6 mps 738 mmHg 56%
    12:00 +3°C° 0.2 mm 6 mps 738 mmHg 54%
    13:00 +3°C° 0.2 mm 6 mps 738 mmHg 52%
    14:00 +3°C° 0.2 mm 6 mps 738 mmHg 50%
    15:00 +3°C° 0.2 mm 6 mps 738 mmHg 53%
    16:00 +3°C° 0.2 mm 5 mps 738 mmHg 56%
    17:00 +3°C° 0.2 mm 4 mps 738 mmHg 59%
    18:00 +1°C° 0.1 mm 4 mps 738 mmHg 63%
    19:00 +1°C° 0.1 mm 4 mps 738 mmHg 66%
    20:00 0°C° 0.1 mm 4 mps 739 mmHg 70%
    21:00 -1°C° 0 mm 4 mps 739 mmHg 72%
    22:00 -1°C° 0 mm 4 mps 739 mmHg 74%
    23:00 -1°C° 0 mm 4 mps 739 mmHg 76%
    Mostrar más